Location: Arbon
(43.0005°N, 0.7472°E)
Time: 21:06:57
(UTC+00:00)

Altair - Pass Details

Date: 04 December 2020
Orbit: 1501 x 1682 km, 47.2° (Epoch: 26 January)

Event Time Altitude Azimuth Distance (km) Brightness Sun altitude
Rises 20:08:49 0° 254° (WSW) 4,748 10.8 -40.6°
Reaches altitude 10° 20:11:56 10° 255° (WSW) 3,742 10.1 -41.1°
Enters shadow 20:19:19 59° 271° (W) 1,724 7.7 -42.5°
Maximum altitude 20:21:23 79° 343° (NNW) 1,547 - -42.9°
Drops below altitude 10° 20:30:37 10° 71° (ENE) 3,657 - -44.5°
Sets 20:33:37 0° 72° (ENE) 4,637 - -45.1°
